OTP-2

Last updated on Fri Sep 11 2026 00:03:13 GMT+0000 (Coordinated Universal Time)

1 63235U 25052AB 26253.42414865 .00006540 00000+0 26494-3 0 9997 2 63235 97.3739 144.5866 0004982 206.7928 153.3053 15.24988855 82858
UTC large
Height (km)
Speed (km/s)
/
Latitude / Longitude
Inclination (degrees)
Orbital Period (minutes)
Azimuth
Elevation
Range (km)
Doppler Factor

Next 0 passes for location: London (51.5072 / 0.1276)

No passes found over London.
OTP-2